Regional Weather Roundup
Issued by NWS

Home | Current Version | Previous Version | Graphics & Text | Print | Product List | Glossary On
Versions: 1 2 3 4 5 6 7 8 9 10 11 12 13 14 15 16 17 18 19 20 21 22 23 24 25 26 27 28 29 30 31 32 33 34 35 36 37 38 39 40 41 42 43 44 45 46 47 48 49 50
000
ASUS43 KFSD 292302
RWRSD

WEATHER ROUNDUP FOR SOUTH DAKOTA
NATIONAL WEATHER SERVICE SIOUX FALLS SD
600 PM CDT SUN MAY 29 2016

NOTE: "FAIR" INDICATES FEW OR NO CLOUDS BELOW 12,000 FEET WITH NO
SIGNIFICANT WEATHER AND/OR OBSTRUCTIONS TO VISIBILITY.


SDZ001>005-009-010-012>017-300000-
NORTHWEST AND NORTH CENTRAL SOUTH DAKOTA

CITY           SKY/WX    TMP DP  RH WIND       PRES   REMARKS
BUFFALO          N/A     76  45  33 S10       29.91F
FAITH            N/A     63  46  54 NE16      30.01R
MOBRIDGE       CLOUDY    63  56  78 SE10      30.00S
$$

SDZ012>016-024>037-041>051-057-063-072>074-300000-
SOUTHWEST AND SOUTH CENTRAL SOUTH DAKOTA

CITY           SKY/WX    TMP DP  RH WIND       PRES   REMARKS
RAPID CTY ARPT SUNNY     72  53  51 E10       29.98F
PIERRE         SUNNY     77  51  40 SE13      29.96F
CUSTER         MOSUNNY   69  34  27 VRB5      30.08F
PHILIP         MOSUNNY   76  53  44 E9        29.96F
PINE RIDGE     SUNNY     79  43  27 NW6       29.99F
WINNER         FAIR      78  54  43 SE6       30.00F
$$

SDZ004>011-016>023-039-040-300000-
NORTHEAST SOUTH DAKOTA

CITY           SKY/WX    TMP DP  RH WIND       PRES   REMARKS
ABERDEEN       SUNNY     80  44  27 VRB6      29.97F
WATERTOWN      SUNNY     77  45  32 NW12      29.99F
BROOKINGS      SUNNY     76  49  38 NW10      30.00F
SISSETON         N/A     81  41  24 N14       29.94F
$$

SDZ017-020-022-023-036>040-048>070-300000-
SOUTHEAST SOUTH DAKOTA

CITY           SKY/WX    TMP DP  RH WIND       PRES   REMARKS
SIOUX FALLS    SUNNY     78  49  35 NW5       30.01F
HURON          SUNNY     77  49  37 CALM      29.99F
MITCHELL       SUNNY     78  47  33 W6        30.01F
YANKTON        SUNNY     79  55  44 NE5       29.98F
$$

ABBREVIATIONS USED IN REMARKS
   TC - TEMPERATURE IN CELSIUS
  WCI - WIND CHILL INDEX
   HX - HEAT INDEX
  VSB - VISIBILITY





USA.gov is the U.S. government's official web portal to all federal, state and local government web resources and services.